sat.trackr.live / text

‹ back to catalog

STARLINK-37879

NORAD 69490 · 2026-131N

PAYLOAD ACTIVE UNKNOWN

§ Identity

Operator
Country
US
Launch date
2026-06-11
Launch site
AFWTR
Launch vehicle
Mass (kg)
RCS (m²)

Purposes: comms

External: N2YO · Heavens-Above · Gunter

§ Orbital elements

Epoch: 2026-09-19T19:36:39.909312Z

Period
93.91 min
Inclination
97.2843°
Eccentricity
0.0001318
Mean motion
15.33451539 rev/d
Perigee alt
464.6 km
Apogee alt
466.4 km
Semi-major
6,843.7 km
B*
3.3908e-4
RAAN
283.7050°
Arg perigee
93.1469°
Mean anomaly
266.9925°
Rev number
1,679

§ Raw data

STARLINK-378791 69490U 26131N   26262.81712858  .00010890  00000+0  33908-3 0  99922 69490  97.2843 283.7050 0001318  93.1469 266.9925 15.33451539 16794

JSON: /api/v1/satellites/69490 · /tle

For live sub-satellite position, see the globe view (requires WebGL).

§ Visibility from observer

Set your observer location to see the next 7 days of passes ≥ 10°. The values pass through the URL so the page stays shareable.

No JS? Fill the form by hand. The geolocation button needs JavaScript.